Volver al catálogo

NOAA 15

ActivoMeteoSSO
NORAD 25338·PAYLOAD·🇺🇸 United States

Lanzado May 13, 1998 desde Vandenberg Space Force Base

Loading…

Próximos Pases (próximas 24 horas)

TLE

ActualizadoSource: Space-Track

Época: Sep 14, 2026, 13:48 UTC

1 25338U 98030A   26257.57517459  .00000072  00000-0  47078-4 0  9995
2 25338  98.5056 275.7880 0011462  86.1691 274.0801 14.27168538474044

Sigue NOAA 15 en tiempo real con AllMySat

Download on the App Store